Flag for U.S.A. Weather past 2 weeks in Vallejo, California, U.S.A.

Now
77 °F

Sunny.


Feels Like: 79 °F
Forecast: 57 / 75 °F
Wind: 10 mph from Southwest

Location: Napa County Airport

Current Time: Sep 30, 2014 at 4:21:54 PM

Latest Report: Sep 30, 2014 at 3:54 PM


Visibility: 10 mi

Pressure: 29.83 "Hg

Humidity: 50%

Dew point: 57 °F

Location of VallejoLocation

Historic Weather in Vallejo — Graph

°F

Vallejo temperature yesterday

Maximum temperature yesterday: 72 °F (at 3:54 PM)
Minimum temperature yesterday: 49 °F (at 4:54 AM)
Average temperature yesterday: 60 °F

Past Weeks' High & Low Weather Summary

 TemperatureHumidityPressure
High83 °F (Sep 16, 3:54 PM)100% (Sep 16, 3:54 AM)30.01 "Hg (Sep 16, 3:54 AM)
Low46 °F (Sep 30, 6:01 AM)36% (Sep 17, 2:54 PM)29.70 "Hg (Sep 17, 4:54 PM)
Average65 °F80%29.88 "Hg
* Reported Sep 15 2:54 PM — Sep 30 2:54 PM, Vallejo, Weather by CustomWeather, © 2014

Note: Actual official high and low records may vary slightly from our data, if they occured in-between our weather recording intervals... More about our weather records

Advertising

Vallejo weather history for previous 24 hours

 ConditionsComfort  
Time TempWeatherWind HumidityBarometerVisibility
2:54 PM
Sep 30
77 °FSunny.8 mph48%29.84 "Hg10 mi
1:54 PM73 °FSunny.7 mph57%29.88 "Hg10 mi
12:54 PM71 °FSunny.7 mph61%29.90 "Hg10 mi
11:54 AM67 °FSunny.9 mph73%29.92 "Hg10 mi
10:54 AM64 °FPassing clouds.6 mph78%29.93 "Hg10 mi
9:54 AM57 °FLow clouds.No wind100%29.94 "Hg10 mi
8:54 AM54 °FFog.5 mph100%29.94 "Hg0 mi
7:54 AM51 °FClear.3 mph100%29.93 "Hg8 mi
6:54 AM46 °FClear.No wind100%29.92 "Hg8 mi
6:01 AM46 °FFog.No wind100%29.95 "Hg3 mi
4:54 AM47 °FFog.No wind100%29.92 "Hg0 mi
3:56 AM49 °FFog.No wind100%29.95 "Hg1 mi
2:54 AM52 °FClear.No wind100%29.93 "Hg8 mi
1:54 AM53 °FClear.No wind96%29.93 "Hg10 mi
12:54 AM55 °FClear.3 mph96%29.93 "Hg10 mi
11:54 PM
Sep 29
56 °FClear.6 mph97%29.94 "Hg10 mi
10:54 PM57 °FClear.6 mph93%29.94 "Hg10 mi
9:54 PM59 °FClear.8 mph90%29.94 "Hg10 mi
8:54 PM61 °FClear.7 mph87%29.93 "Hg10 mi
7:54 PM62 °FSunny.10 mph83%29.92 "Hg10 mi
6:54 PM65 °FSunny.12 mph76%29.91 "Hg10 mi
5:54 PM70 °FSunny.12 mph61%29.92 "Hg10 mi
4:54 PM70 °FSunny.14 mph66%29.92 "Hg10 mi
Weather by CustomWeather, © 2014

See weather overviewHow to use our weather pages